Regional Weather Roundup
Issued by NWS Midland/Odessa, TX

Skip options and go directly to product.
Home | Oldest Version | Previous Version | Current Version | All | Text Only | Save Text | Print | Product List | Glossary Off

Skip product version selection by date and time.   

023
ASUS44 KMAF 291701
RWRMAF
MIDLAND AREA WEATHER ROUNDUP
NATIONAL WEATHER SERVICE MIDLAND TX
1200 PM CDT WED MAR 29 2017

...IN SOUTHWEST TEXAS AND SOUTHEAST NEW MEXICO...

CITY           SKY/WX    TMP DP  RH WIND       PRES   REMARKS
ALPINE         MOSUNNY   62  28  27 W22G32    30.00R
ANDREWS        PTSUNNY   54  37  51 NW23G36   29.87
ARTESIA        CLOUDY    48  41  76 N24G33    29.99R
BIG SPRING       N/A     58  45  61 W22       29.84R
CARLSBAD       CLOUDY    54  39  57 N24G33    29.97R
DRYDEN           N/A     75  30  19 W17G30    29.84R
FORT STOCKTON  PTSUNNY   65  35  33 NW25G37   29.90R
GUAD PASS      CLOUDY    52  37  56 W9        29.98R
HOBBS          PTSUNNY   50  36  57 NW24G35   29.91R
MARFA          SUNNY     61  28  28 W30G39    29.99R
MIDLAND AIRPK  MOSUNNY   60  41  48 NW20G29   29.86R
MIDLAND INTL   MOSUNNY   61  41  47 NW23G31   29.86R
ODESSA         PTSUNNY   61  40  45 NW18G30   29.87R
PECOS          PTSUNNY   61  39  44 CALM      29.92R
PRESIDIO       FAIR      68  28  22 W20G30    29.95R
SEMINOLE       PTSUNNY   51  36  58 N24G33    29.89R
SNYDER         PTSUNNY   58  45  60 W18G25    29.79R
WINK             N/A     62  39  42 MISG      29.89R
$$
...OTHER STATIONS IN TEXAS...

CITY           SKY/WX    TMP DP  RH WIND       PRES   REMARKS
ABILENE        SUNNY     66  49  54 W18       29.76R
AMARILLO       LGT RAIN  40  39  97 N20G32    29.87R WCI  30
AUSTIN         MOSUNNY   74  60  61 S5        29.81S
BROWNSVILLE    CLOUDY    82  72  71 SW7       29.77S
CORPUS CHRISTI PTSUNNY   81  61  50 NE8       29.80R
DALLAS FTW     MOSUNNY   75  53  46 SW21G26   29.72R
DEL RIO        SUNNY     77  40  26 W12       29.82S
EL PASO        MOSUNNY   56  36  47 NE7       29.97R
HOUSTON INT    CLOUDY    70  67  90 SE15G23   29.81S
LUBBOCK        LGT RAIN  46  42  86 N26G36    29.80R FOG     WCI  37
SAN ANGELO     SUNNY     69  41  36 W18       29.80R
SAN ANTONIO    MOSUNNY   71  58  63 SE3       29.83S
WACO           SUNNY     73  60  63 S14       29.78S
WICHITA FALLS  NOT AVBL
$$
...OTHER LOCATIONS IN NEW MEXICO...

CITY           SKY/WX    TMP DP  RH WIND       PRES   REMARKS
ALAMAGORDO       N/A    N/A N/A N/A MISG        N/A
ALBUQUERQUE    CLOUDY    52  39  61 N9        30.02R
CANNON AFB     LGT RAIN  44  44 100 N29G39    29.89S WCI  34
CLOVIS         CLOUDY    45  37  76 N28G37    29.91R WCI  35
HOLLOMAN AFB   PTSUNNY   54  41  61 N13G18    30.02R
ROSWELL        LGT RAIN  48  41  76 N21G29    30.01R
RUIDOSO        LGT RAIN  36  32  87 N15G23    30.03R WCI  26
SANTA FE       CLOUDY    47  34  60 N23G31    30.00R WCI  39
TRUTH OR CONSE CLOUDY    54  37  52 N10G17    30.02R
TUCUMCARI      LGT RAIN  44  41  89 N9        29.95R FOG     WCI  39
$$

  • National Weather Service
  • Southern Region Headquarters
  • 819 Taylor Street, Room 10A06
  • Fort Worth, TX 76102
  • Page Author: NWS Fort Worth
  • Web Master: SR-SRH.Webmaster@noaa.gov
  •  
  • Page last modified: 30-Sep-2016 6:36 PM UTC
USA.gov is the U.S. government's official web portal to all federal, state and local government web resources and services.